When you browse on this site, cookies collect data to enhance your experience and personalize the content and advertising you see.
Visit our Privacy Policy to learn more. By continuing to use the site, you agree to this use of cookies and data.
  • In Latvia
  • List of Countries
  • For 7 days
  • Water Temperature
  • Satellite Maps
  • Weather Map
  • Weather Widgets
  • user-avatar
    Login

    Hourly Weather Konstantynowka

    Today, 19 February, Tuesday

    Time Temperature Precipitation Wind Pressure Humidity
    00:00 +3°C° 0 mm 2 mps 744 mmHg 86%
    01:00 +3°C° 0 mm 2 mps 744 mmHg 86%
    02:00 +2°C° 0 mm 2 mps 744 mmHg 86%
    03:00 +2°C° 0 mm 2 mps 743 mmHg 87%
    04:00 +2°C° 0 mm 2 mps 743 mmHg 87%
    05:00 +2°C° 0 mm 2 mps 743 mmHg 87%
    06:00 +2°C° 0 mm 2 mps 743 mmHg 87%
    07:00 +2°C° 0 mm 2 mps 742 mmHg 87%
    08:00 +1°C° 0 mm 2 mps 742 mmHg 87%
    09:00 +3°C° 0 mm 2 mps 742 mmHg 80%
    10:00 +4°C° 0 mm 3 mps 742 mmHg 73%
    11:00 +7°C° 0 mm 3 mps 742 mmHg 66%
    12:00 +7°C° 0 mm 4 mps 742 mmHg 62%
    13:00 +8°C° 0 mm 4 mps 741 mmHg 58%
    14:00 +9°C° 0 mm 5 mps 741 mmHg 54%
    15:00 +10°C° 0 mm 4 mps 741 mmHg 57%
    16:00 +8°C° 0 mm 4 mps 740 mmHg 60%
    17:00 +8°C° 0 mm 4 mps 740 mmHg 63%
    18:00 +7°C° 0 mm 4 mps 740 mmHg 67%
    19:00 +6°C° 0 mm 5 mps 740 mmHg 71%
    20:00 +5°C° 0 mm 5 mps 740 mmHg 75%
    21:00 +3°C° 0 mm 5 mps 740 mmHg 76%
    22:00 +3°C° 0 mm 5 mps 740 mmHg 78%
    23:00 +3°C° 0 mm 5 mps 740 mmHg 79%

    Tomorrow, 20 February, Wednesday

    Time Temperature Precipitation Wind Pressure Humidity
    00:00 +2°C° 0 mm 5 mps 740 mmHg 80%
    01:00 +3°C° 0 mm 4 mps 740 mmHg 81%
    02:00 +3°C° 0 mm 4 mps 740 mmHg 82%
    03:00 +3°C° 0.4 mm 4 mps 740 mmHg 83%
    04:00 +2°C° 0.4 mm 5 mps 740 mmHg 85%
    05:00 +2°C° 0.4 mm 5 mps 740 mmHg 86%
    06:00 +2°C° 0.1 mm 5 mps 740 mmHg 88%
    07:00 +2°C° 0.1 mm 5 mps 740 mmHg 90%
    08:00 +1°C° 0.1 mm 4 mps 740 mmHg 92%
    09:00 +2°C° 0.1 mm 5 mps 741 mmHg 88%
    10:00 +3°C° 0.1 mm 6 mps 741 mmHg 83%
    11:00 +3°C° 0.1 mm 7 mps 741 mmHg 79%
    12:00 +3°C° 0.1 mm 6 mps 742 mmHg 75%
    13:00 +4°C° 0.1 mm 6 mps 742 mmHg 72%
    14:00 +4°C° 0.1 mm 6 mps 742 mmHg 69%
    15:00 +4°C° 0.1 mm 6 mps 742 mmHg 68%
    16:00 +4°C° 0.1 mm 6 mps 742 mmHg 68%
    17:00 +5°C° 0.1 mm 5 mps 742 mmHg 68%
    18:00 +3°C° 0.1 mm 5 mps 743 mmHg 71%
    19:00 +3°C° 0.1 mm 5 mps 743 mmHg 74%
    20:00 +2°C° 0.1 mm 5 mps 743 mmHg 76%
    21:00 +3°C° 0.1 mm 4 mps 744 mmHg 77%
    22:00 +3°C° 0.1 mm 4 mps 744 mmHg 77%
    23:00 +3°C° 0.1 mm 4 mps 744 mmHg 78%

    Day after tomorrow, 21 February, Thursday

    Time Temperature Precipitation Wind Pressure Humidity
    00:00 +3°C° 0 mm 4 mps 744 mmHg 78%
    01:00 +3°C° 0 mm 4 mps 744 mmHg 79%
    02:00 +3°C° 0 mm 4 mps 744 mmHg 79%
    03:00 +2°C° 0 mm 5 mps 744 mmHg 81%
    04:00 +2°C° 0 mm 5 mps 744 mmHg 83%
    05:00 +2°C° 0 mm 5 mps 744 mmHg 84%
    06:00 +2°C° 0.1 mm 5 mps 744 mmHg 84%
    07:00 +2°C° 0.1 mm 5 mps 744 mmHg 83%
    08:00 +2°C° 0.1 mm 5 mps 744 mmHg 82%
    09:00 +3°C° 0.1 mm 5 mps 744 mmHg 78%
    10:00 +4°C° 0.1 mm 6 mps 744 mmHg 74%
    11:00 +4°C° 0.1 mm 6 mps 744 mmHg 69%
    12:00 +4°C° 0.1 mm 6 mps 744 mmHg 70%
    13:00 +5°C° 0.1 mm 6 mps 743 mmHg 70%
    14:00 +5°C° 0.1 mm 6 mps 743 mmHg 71%
    15:00 +4°C° 0.2 mm 6 mps 743 mmHg 74%
    16:00 +4°C° 0.2 mm 6 mps 743 mmHg 78%
    17:00 +4°C° 0.2 mm 6 mps 742 mmHg 81%
    18:00 +4°C° 0.7 mm 6 mps 742 mmHg 83%
    19:00 +4°C° 0.7 mm 6 mps 742 mmHg 85%
    20:00 +3°C° 0.7 mm 6 mps 742 mmHg 87%
    21:00 +4°C° 0.3 mm 6 mps 742 mmHg 88%
    22:00 +4°C° 0.3 mm 6 mps 742 mmHg 89%
    23:00 +4°C° 0.3 mm 7 mps 742 mmHg 89%

    22 February, Friday

    Time Temperature Precipitation Wind Pressure Humidity
    00:00 +4°C° 0.3 mm 6 mps 742 mmHg 90%
    01:00 +4°C° 0.3 mm 6 mps 743 mmHg 90%
    02:00 +5°C° 0.3 mm 5 mps 743 mmHg 91%
    03:00 +3°C° 0.7 mm 6 mps 743 mmHg 90%
    04:00 +3°C° 0.7 mm 6 mps 744 mmHg 89%
    05:00 +2°C° 0.7 mm 6 mps 744 mmHg 88%
    06:00 +1°C° 0.1 mm 6 mps 745 mmHg 85%
    07:00 -2°C° 0.1 mm 6 mps 746 mmHg 81%
    08:00 -3°C° 0.1 mm 6 mps 747 mmHg 78%
    09:00 -3°C° 0 mm 6 mps 748 mmHg 73%
    10:00 -3°C° 0 mm 6 mps 749 mmHg 68%
    11:00 -2°C° 0 mm 5 mps 751 mmHg 63%
    12:00 -2°C° 0 mm 5 mps 751 mmHg 60%
    13:00 -3°C° 0 mm 6 mps 752 mmHg 57%
    14:00 -3°C° 0 mm 6 mps 752 mmHg 54%
    15:00 -3°C° 0 mm 6 mps 753 mmHg 54%
    16:00 -4°C° 0 mm 6 mps 753 mmHg 54%
    17:00 -4°C° 0 mm 6 mps 754 mmHg 54%
    18:00 -5°C° 0 mm 5 mps 755 mmHg 54%
    19:00 -5°C° 0 mm 5 mps 755 mmHg 53%
    20:00 -5°C° 0 mm 4 mps 756 mmHg 53%
    21:00 -5°C° 0 mm 4 mps 757 mmHg 51%
    22:00 -5°C° 0 mm 4 mps 757 mmHg 49%
    23:00 -5°C° 0 mm 4 mps 758 mmHg 46%

    23 February, Saturday

    Time Temperature Precipitation Wind Pressure Humidity
    00:00 -5°C° 0 mm 3 mps 758 mmHg 45%
    01:00 -5°C° 0 mm 3 mps 758 mmHg 44%
    02:00 -5°C° 0 mm 3 mps 759 mmHg 43%
    03:00 -5°C° 0 mm 3 mps 758 mmHg 43%
    04:00 -4°C° 0 mm 2 mps 758 mmHg 44%
    05:00 -4°C° 0 mm 2 mps 758 mmHg 44%
    06:00 -4°C° 0 mm 2 mps 758 mmHg 44%
    07:00 -4°C° 0 mm 2 mps 758 mmHg 44%
    08:00 -4°C° 0 mm 2 mps 758 mmHg 45%
    09:00 -3°C° 0 mm 2 mps 758 mmHg 40%
    10:00 -2°C° 0 mm 2 mps 758 mmHg 35%
    11:00 -1°C° 0 mm 2 mps 757 mmHg 31%
    12:00 -1°C° 0 mm 2 mps 757 mmHg 31%
    13:00 -1°C° 0 mm 2 mps 756 mmHg 31%
    14:00 -1°C° 0 mm 3 mps 756 mmHg 31%
    15:00 -1°C° 0 mm 3 mps 755 mmHg 35%
    16:00 -1°C° 0 mm 2 mps 755 mmHg 39%
    17:00 -1°C° 0 mm 2 mps 754 mmHg 43%
    18:00 -2°C° 0 mm 2 mps 754 mmHg 45%
    19:00 -2°C° 0 mm 2 mps 754 mmHg 47%
    20:00 -2°C° 0 mm 2 mps 753 mmHg 49%
    21:00 -1°C° 0 mm 2 mps 753 mmHg 49%
    22:00 -1°C° 0 mm 2 mps 753 mmHg 48%
    23:00 -1°C° 0 mm 2 mps 753 mmHg 47%

    24 February, Sunday

    Time Temperature Precipitation Wind Pressure Humidity
    00:00 -1°C° 0 mm 2 mps 753 mmHg 50%
    01:00 -1°C° 0 mm 2 mps 753 mmHg 52%
    02:00 -1°C° 0 mm 2 mps 753 mmHg 55%
    03:00 -2°C° 0 mm 2 mps 753 mmHg 60%
    04:00 -2°C° 0 mm 2 mps 753 mmHg 65%
    05:00 -3°C° 0 mm 2 mps 752 mmHg 70%
    06:00 -2°C° 0 mm 2 mps 752 mmHg 73%
    07:00 -2°C° 0 mm 2 mps 752 mmHg 75%
    08:00 -2°C° 0 mm 2 mps 752 mmHg 77%
    09:00 -1°C° 0 mm 2 mps 752 mmHg 79%
    10:00 +1°C° 0 mm 2 mps 753 mmHg 80%
    11:00 +1°C° 0 mm 3 mps 753 mmHg 81%
    12:00 +1°C° 0 mm 3 mps 752 mmHg 83%
    13:00 +2°C° 0 mm 3 mps 752 mmHg 85%
    14:00 +2°C° 0 mm 3 mps 751 mmHg 87%
    15:00 +2°C° 0 mm 3 mps 751 mmHg 88%
    16:00 +2°C° 0 mm 3 mps 750 mmHg 89%
    17:00 +4°C° 0 mm 2 mps 750 mmHg 91%
    18:00 +2°C° 0 mm 3 mps 749 mmHg 92%
    19:00 +1°C° 0 mm 3 mps 749 mmHg 93%
    20:00 +1°C° 0 mm 3 mps 749 mmHg 94%
    21:00 0°C° 0 mm 3 mps 748 mmHg 94%
    22:00 -1°C° 0 mm 4 mps 747 mmHg 94%
    23:00 -1°C° 0 mm 4 mps 747 mmHg 94%
    Show more